Powrót do katalogu

STARLINK-3888

AktywnyŁącznośćVLEO
NORAD 52454·PAYLOAD·🇺🇸 United States

Wystrzelony May 6, 2022 z Cape Canaveral Space Force Station

Loading…

Następne Przeloty (najbliższe 24 godziny)

TLE

ŚwieżeSource: CelesTrak SupGP

Epoka: Sep 14, 2026, 21:07 UTC

1 52454C 22049D   26257.88034722  .00009814  00000+0  28068-3 0  2578
2 52454  53.1591 295.8252 0001140  64.0137 169.9999 15.35405488    12

Śledź STARLINK-3888 w czasie rzeczywistym z AllMySat

Download on the App Store